[[{"header":{"parameterUnit":"m.s-1","parameterCategory":1,"la1":30.2991,"la2":30.254,"lo1":-89.0895,"lo2":-89.0444,"dy":0.0017,"dx":0.0017,"nx":28,"ny":28,"refTime":"2024-12-10T09:00:00:Z","depth":0,"parameterNumber":2,"parameterNumberName":"U-component_of_WINDS"},"data":[0,0,0,0,0,0,0,0,0,0,0,0,0,0,0,0,0,0,0,0,0,0,0,0,0,0,0,0,0,0,0,0,0,0,0,0,0,0,0,0,0,0,0,0,0,0,0,0,0,0,0,0,0,0,0,0,0,0,-0.0076,-0.0076,0,-0.011,-0.011,-0.0111,-0.0112,-0.0112,-0.0112,-0.0111,-0.0148,-0.015,-0.0151,0,0,0,0,0,0,0,0,0,0,0,0,0,-0.0016,-0.0017,-0.0076,-0.0076,-0.0077,-0.011,-0.011,-0.0111,-0.0112,-0.0112,-0.0111,-0.0111,-0.0148,-0.0149,-0.0151,0,0,0,0,0,0,0,0,0,0,0,0,0,-0.0045,-0.0017,-0.0076,-0.0082,-0.0082,-0.011,-0.011,-0.0111,-0.0113,-0.0112,-0.0111,-0.0111,-0.0147,-0.0149,-0.0151,-0.0176,0,0,-0.0158,-0.0158,0,0,0,0,0,0,0,0,-0.0043,-0.0047,-0.008,-0.0081,-0.0082,-0.0106,-0.0103,-0.0133,-0.0113,-0.0101,-0.0111,-0.011,-0.0135,-0.0138,-0.0146,-0.0178,-0.0179,-0.0158,-0.0159,-0.016,-0.016,0,0,0,0,0,0,0,-0.0041,-0.0046,-0.0089,-0.0081,-0.0082,-0.0083,-0.0087,-0.0108,-0.0121,-0.0102,-0.0102,-0.0106,-0.0135,-0.0144,-0.0147,-0.018,-0.0158,-0.0159,-0.0161,-0.0162,-0.0234,-0.0234,0,0,0,0,0,0,-0.0038,-0.0044,-0.0088,-0.009,-0.0061,-0.0085,-0.0089,-0.0099,-0.0121,-0.0124,-0.0107,-0.0106,-0.0141,-0.0144,-0.0148,-0.0178,-0.016,-0.0162,-0.0163,-0.0233,-0.0234,-0.0235,0,0,0,0,0,0,-0.0037,-0.0042,-0.0087,-0.0067,-0.0073,-0.0087,-0.0098,-0.01,-0.0108,-0.0124,-0.0127,-0.0113,-0.014,-0.0145,-0.0169,-0.0179,-0.0163,-0.0165,-0.0232,-0.0233,-0.0234,-0.0238,0,0,0,0,0,0,-0.0035,-0.0041,-0.005,-0.0068,-0.0074,-0.0107,-0.0099,-0.0101,-0.0112,-0.0111,-0.0131,-0.0133,-0.014,-0.0166,-0.0171,-0.0182,-0.0166,-0.0231,-0.0233,-0.0234,-0.0237,-0.0239,-0.0241,0,0,0,0,0,-0.0033,-0.005,-0.0051,-0.0056,-0.0085,-0.0107,-0.0111,-0.0118,-0.0112,-0.0122,-0.0132,-0.0133,-0.0177,-0.0168,-0.0174,-0.0185,-0.0231,-0.0232,-0.0234,-0.0236,-0.0239,-0.0241,0,0,0,0,0,0,-0.0035,-0.0053,-0.0053,-0.0077,-0.009,-0.0107,-0.0119,-0.012,-0.0136,-0.0135,-0.0144,-0.0149,-0.0172,-0.0181,-0.0171,-0.021,-0.0203,-0.0206,-0.0203,-0.0206,-0.0208,-0.0205,-0.0168,0,0,0,0,0,-0.0038,-0.0053,-0.0068,-0.0088,-0.0095,-0.0106,-0.0116,-0.012,-0.0134,-0.014,-0.0152,-0.0167,-0.0184,-0.0196,-0.0213,-0.0239,-0.0243,-0.0249,-0.0251,-0.0253,-0.0255,-0.0269,-0.0272,-0.024,-0.024,-0.024,0,0,-0.0045,-0.0057,-0.0066,-0.0089,-0.01,-0.0116,-0.0111,-0.0128,-0.014,-0.0143,-0.0166,-0.0175,-0.0193,-0.0217,-0.0229,-0.0226,-0.0265,-0.0255,-0.0256,-0.0257,-0.0271,-0.0274,-0.0277,-0.0241,-0.024,-0.024,0,0,-0.0065,-0.0076,-0.0093,-0.0104,-0.012,-0.0127,-0.0131,-0.0148,-0.0154,-0.0177,-0.0179,-0.0195,-0.0225,-0.0237,-0.0247,-0.0272,-0.0273,-0.0278,-0.0287,-0.0301,-0.0303,-0.0306,-0.0314,-0.0317,-0.028,-0.028,-0.028,0,-0.0072,-0.0096,-0.0102,-0.0119,-0.0129,-0.0132,-0.015,-0.016,-0.0182,-0.0189,-0.0185,-0.0222,-0.0234,-0.0262,-0.0268,-0.0276,-0.0281,-0.0275,-0.0302,-0.0305,-0.0307,-0.0315,-0.0319,-0.028,-0.028,-0.028,-0.028,0,-0.0103,-0.0119,-0.0132,-0.0151,-0.0162,-0.018,-0.019,-0.0201,-0.0204,-0.0212,-0.0236,-0.025,-0.027,-0.0277,-0.028,-0.0305,-0.0302,-0.03,-0.0293,-0.031,-0.0318,-0.0322,-0.0281,-0.0281,-0.028,-0.028,0,0,-0.0125,-0.0148,-0.0152,-0.0161,-0.0179,-0.0192,-0.021,-0.0228,-0.0238,-0.0253,-0.0268,-0.0293,-0.0292,-0.0303,-0.0308,-0.0321,-0.0339,-0.0317,-0.0318,-0.032,-0.0367,-0.0367,-0.0371,-0.034,-0.0341,-0.0341,-0.0365,0,-0.0148,-0.0178,-0.0184,-0.0211,-0.0226,-0.0229,-0.0245,-0.0258,-0.0266,-0.0281,-0.0291,-0.0308,-0.0305,-0.0312,-0.0324,-0.0334,-0.0348,-0.0333,-0.0355,-0.0356,-0.035,-0.0375,-0.0376,-0.0398,-0.0368,-0.0369,-0.0369,0,-0.0177,-0.0191,-0.0219,-0.0235,-0.0242,-0.0256,-0.0273,-0.0287,-0.0303,-0.0308,-0.032,-0.0324,-0.0344,-0.0336,-0.0363,-0.0353,-0.0362,-0.0369,-0.037,-0.0372,-0.0363,-0.0377,-0.0405,-0.0408,-0.0374,-0.0374,-0.0373,0,-0.019,-0.0217,-0.0237,-0.0244,-0.0263,-0.0273,-0.0282,-0.0296,-0.0307,-0.0322,-0.0329,-0.0348,-0.0357,-0.0372,-0.0381,-0.0374,-0.0407,-0.04,-0.0412,-0.0412,-0.0418,-0.0417,-0.0447,-0.0425,-0.0425,-0.0425,-0.0425,0,-0.0214,-0.0231,-0.0243,-0.0255,-0.0274,-0.0282,-0.0301,-0.031,-0.0323,-0.0337,-0.0342,-0.0355,-0.0367,-0.0382,-0.039,-0.0411,-0.0416,-0.042,-0.0422,-0.042,-0.0419,-0.0426,-0.0424,-0.0426,-0.0426,-0.0426,-0.0426,0,-0.0231,-0.024,-0.0262,-0.0278,-0.0282,-0.0296,-0.031,-0.0322,-0.0331,-0.0349,-0.0354,-0.0367,-0.0386,-0.0396,-0.042,-0.0425,-0.0448,-0.0449,-0.0442,-0.0443,-0.0454,-0.0452,-0.0488,-0.0493,-0.0469,-0.0469,-0.0469,0,-0.0245,-0.0258,-0.0275,-0.0285,-0.0293,-0.0309,-0.0319,-0.0328,-0.0339,-0.0357,-0.0368,-0.0386,-0.0401,-0.0431,-0.0443,-0.0461,-0.0463,-0.0474,-0.0466,-0.0463,-0.0462,-0.0461,-0.0462,-0.0475,-0.0476,-0.0476,-0.0476,0,-0.0269,-0.0273,-0.0287,-0.0303,-0.0316,-0.0329,-0.0342,-0.035,-0.0361,-0.0373,-0.0392,-0.0403,-0.0427,-0.0446,-0.0465,-0.0475,-0.0477,-0.0479,-0.0482,-0.0479,-0.0475,-0.0477,-0.0446,-0.0478,-0.0477,-0.0477,-0.0477,-0.0477,-0.0285,-0.0297,-0.031,-0.0326,-0.0337,-0.0349,-0.0362,-0.0371,-0.0386,-0.0405,-0.041,-0.0429,-0.0445,-0.047,-0.0481,-0.0497,-0.0495,-0.05,-0.0501,-0.0502,-0.0502,-0.0473,-0.05,-0.05,-0.05,-0.05,-0.05,0,-0.0309,-0.0318,-0.0333,-0.035,-0.0363,-0.0364,-0.0379,-0.0389,-0.0406,-0.042,-0.0434,-0.0456,-0.0474,-0.0487,-0.0506,-0.0516,-0.0518,-0.052,-0.052,-0.0522,-0.0503,-0.0498,-0.0519,-0.0519,-0.0519,-0.0519,-0.0519,-0.0519,-0.0323,-0.0342,-0.0347,-0.0372,-0.0381,-0.0399,-0.0408,-0.0419,-0.043,-0.0453,-0.0468,-0.0476,-0.049,-0.051,-0.0526,-0.053,-0.0536,-0.0539,-0.0543,-0.0525,-0.0523,-0.0521,-0.0516,-0.054,-0.054,-0.056,-0.056,-0.056]},{"header":{"parameterUnit":"m.s-1","parameterCategory":1,"la1":30.2991,"la2":30.254,"lo1":-89.0895,"lo2":-89.0444,"dy":0.0017,"dx":0.0017,"nx":28,"ny":28,"refTime":"2024-12-10T09:00:00:Z","depth":0,"parameterNumber":3,"parameterNumberName":"V-component_of_WINDS"},"data":[0,0,0,0,0,0,0,0,0,0,0,0,0,0,0,0,0,0,0,0,0,0,0,0,0,0,0,0,0,0,0,0,0,0,0,0,0,0,0,0,0,0,0,0,0,0,0,0,0,0,0,0,0,0,0,0,0,0,3.1162,3.1163,0,3.122,3.122,3.1221,3.1209,3.1208,3.1207,3.1206,3.1263,3.1266,3.1268,0,0,0,0,0,0,0,0,0,0,0,0,0,3.1042,3.1044,3.1162,3.1163,3.1164,3.1219,3.122,3.1221,3.121,3.1208,3.1207,3.1206,3.1262,3.1265,3.1268,0,0,0,0,0,0,0,0,0,0,0,0,0,3.1096,3.1045,3.1162,3.1165,3.1166,3.1219,3.122,3.1221,3.121,3.1208,3.1207,3.1205,3.1261,3.1265,3.1269,3.1323,0,0,3.128,3.1282,0,0,0,0,0,0,0,0,3.1093,3.1101,3.1164,3.1165,3.1166,3.1206,3.1199,3.1255,3.121,3.1193,3.1206,3.1204,3.1245,3.125,3.1264,3.1325,3.1328,3.128,3.1283,3.1284,3.1285,0,0,0,0,0,0,0,3.1089,3.1098,3.1185,3.1165,3.1166,3.1163,3.1169,3.1209,3.1227,3.1194,3.1194,3.1201,3.1245,3.1261,3.1265,3.1329,3.128,3.1284,3.1286,3.1287,3.1438,3.1439,0,0,0,0,0,0,3.1085,3.1095,3.1183,3.1187,3.1125,3.1166,3.1173,3.1194,3.1227,3.123,3.1202,3.12,3.1255,3.1261,3.1267,3.1334,3.1284,3.1288,3.129,3.1436,3.1438,3.144,0,0,0,0,0,0,3.1082,3.1093,3.1181,3.1141,3.1152,3.117,3.1194,3.1196,3.1212,3.1232,3.1235,3.1214,3.1254,3.1262,3.1309,3.1336,3.1289,3.1293,3.1434,3.1437,3.1439,3.1467,0,0,0,0,0,0,3.1079,3.1092,3.1113,3.1141,3.1154,3.1222,3.1196,3.1199,3.1218,3.1216,3.1245,3.1248,3.1253,3.1304,3.1313,3.134,3.1296,3.1432,3.1435,3.1438,3.1464,3.147,3.1475,0,0,0,0,0,3.1075,3.1118,3.1114,3.1125,3.1181,3.1224,3.1231,3.1237,3.122,3.1242,3.1255,3.1247,3.1331,3.1309,3.1319,3.1347,3.143,3.1434,3.1438,3.1461,3.1469,3.1475,0,0,0,0,0,0,3.1092,3.1122,3.1118,3.1172,3.1196,3.1222,3.1249,3.1245,3.1273,3.127,3.1276,3.1282,3.133,3.1343,3.1318,3.1402,3.1378,3.1384,3.1392,3.14,3.1405,3.1402,3.1299,0,0,0,0,0,3.1102,3.1135,3.1159,3.1204,3.1216,3.1231,3.125,3.1252,3.1277,3.1287,3.1303,3.1327,3.1359,3.138,3.141,3.1465,3.1471,3.1489,3.1495,3.15,3.1506,3.1537,3.1545,3.1453,3.1453,3.1453,0,0,3.1123,3.1143,3.1164,3.1208,3.1227,3.1261,3.1239,3.1276,3.1301,3.1292,3.1338,3.1351,3.1378,3.143,3.1453,3.1442,3.1532,3.1505,3.1509,3.1512,3.1542,3.155,3.1558,3.1456,3.1455,3.1455,0,0,3.1179,3.1198,3.1238,3.1257,3.1286,3.1296,3.1305,3.1332,3.1341,3.1387,3.1382,3.1411,3.1465,3.1485,3.1502,3.1566,3.156,3.1576,3.1607,3.1637,3.1645,3.1651,3.1675,3.1684,3.1581,3.1581,3.1581,0,3.1202,3.1254,3.1259,3.1297,3.1317,3.131,3.1351,3.1369,3.1406,3.142,3.1407,3.1476,3.1493,3.155,3.1565,3.1579,3.159,3.1573,3.1643,3.165,3.1656,3.1679,3.1688,3.1583,3.1583,3.1582,3.1582,0,3.1281,3.1317,3.1345,3.1383,3.1405,3.1444,3.1455,3.1478,3.1478,3.1489,3.1536,3.1557,3.1592,3.1605,3.1605,3.1662,3.1654,3.1642,3.1619,3.1667,3.1688,3.1697,3.1585,3.1585,3.1584,3.1584,0,0,3.135,3.139,3.1401,3.1418,3.1449,3.1477,3.1515,3.155,3.157,3.1595,3.1628,3.1674,3.1663,3.1683,3.1685,3.1711,3.1762,3.1696,3.1697,3.1709,3.1827,3.1837,3.1847,3.1758,3.1759,3.1761,3.1825,0,3.1411,3.148,3.1486,3.1548,3.1582,3.1576,3.161,3.1632,3.1643,3.1673,3.1684,3.1717,3.17,3.1712,3.1737,3.175,3.1786,3.1746,3.1789,3.179,3.1784,3.1858,3.1869,3.1929,3.1833,3.1835,3.1836,0,3.1491,3.152,3.1586,3.1613,3.1627,3.1658,3.169,3.1719,3.1744,3.175,3.1772,3.1771,3.181,3.1784,3.1839,3.1811,3.1829,3.1838,3.184,3.1846,3.1817,3.1867,3.1948,3.1958,3.1849,3.1848,3.1847,0,3.1537,3.1592,3.1639,3.1654,3.1686,3.1708,3.1722,3.1746,3.1767,3.1795,3.1809,3.184,3.1858,3.1883,3.189,3.187,3.1945,3.1919,3.1951,3.1951,3.1969,3.1968,3.2055,3.1978,3.1977,3.1977,3.1977,0,3.1605,3.1646,3.1661,3.169,3.1735,3.1741,3.1786,3.1799,3.182,3.1851,3.1847,3.1876,3.1884,3.1914,3.192,3.1965,3.1972,3.1978,3.198,3.198,3.1979,3.1993,3.1989,3.198,3.1979,3.1979,3.1978,0,3.1665,3.1676,3.1727,3.1754,3.1762,3.1794,3.1817,3.1845,3.1854,3.1894,3.1904,3.1919,3.1955,3.1964,3.2006,3.201,3.2064,3.206,3.2056,3.2056,3.2088,3.2086,3.2188,3.2203,3.2114,3.2115,3.2116,0,3.1709,3.174,3.177,3.1791,3.1807,3.1841,3.1862,3.1869,3.1891,3.1922,3.1946,3.1982,3.2011,3.2068,3.2083,3.2115,3.2113,3.2147,3.2118,3.2117,3.2115,3.2114,3.2118,3.2153,3.2154,3.2155,3.2155,0,3.1785,3.1789,3.182,3.1854,3.188,3.1906,3.1931,3.1949,3.1959,3.1984,3.2021,3.2043,3.2087,3.2122,3.2155,3.2169,3.2164,3.2164,3.2173,3.2175,3.2171,3.2175,3.2072,3.2162,3.2161,3.2161,3.216,3.216,3.1839,3.1867,3.1893,3.1928,3.1948,3.1972,3.2,3.2013,3.2044,3.2081,3.2083,3.2123,3.2147,3.2191,3.2207,3.2239,3.2229,3.2242,3.2245,3.2249,3.2253,3.2165,3.2244,3.2244,3.2244,3.2244,3.2244,0,3.1917,3.1933,3.1965,3.2001,3.2029,3.2022,3.2049,3.2073,3.2109,3.2132,3.2161,3.2204,3.2238,3.2255,3.2289,3.2311,3.2309,3.232,3.2319,3.2322,3.2259,3.2248,3.232,3.232,3.232,3.232,3.232,3.232,3.196,3.2008,3.2015,3.2072,3.2088,3.2129,3.2145,3.2167,3.2186,3.2234,3.2263,3.2274,3.2295,3.233,3.2361,3.2365,3.2379,3.2391,3.2394,3.2334,3.2327,3.2319,3.2309,3.2393,3.2393,3.2455,3.2455,3.2456]}]]